• MPC Preparation (Info)

  • MPEC 2010-V03 : 2010 UX7

    The following Minor Planet Electronic Circular may be linked-to from your own Web pages, but must not otherwise be redistributed electronically.

    A form allowing access to any MPEC is at the bottom of this page.


    Read MPEC 2010-V02 Read MPEC 2010-V04


    M.P.E.C. 2010-V03                                Issued 2010 Nov. 1, 02:59 UT
    
         The Minor Planet Electronic Circulars contain information on unusual
             minor planets and routine data on comets.  They are published
       on behalf of Commission 20 of the International Astronomical Union by the
              Minor Planet Center, Smithsonian Astrophysical Observatory,
                              Cambridge, MA 02138, U.S.A.
    
                 Prepared using the Tamkin Foundation Computer Network
    
                                  MPC@CFA.HARVARD.EDU
           URL https://www.minorplanetcenter.org/iau/mpc.html  ISSN 1523-6714
    
                                       2010 UX7
    
    Observations:
         K10U07X* C2010 10 30.37317 04 28 48.28 +32 40 59.5          19.3 V EV003G96
         K10U07X  C2010 10 30.38288 04 28 49.18 +32 41 23.4          19.5 V EV003G96
         K10U07X  C2010 10 30.49604 04 28 59.85 +32 45 59.0          19.5 V EV003G96
         K10U07X  C2010 10 30.49720 04 28 59.98 +32 46 01.8          19.3 V EV003G96
         K10U07X KC2010 10 30.94654104 29 50.08 +33 04 31.6                 EV003B03
         K10U07X KC2010 10 30.95982004 29 51.30 +33 05 04.0          19.1 V EV003B03
         K10U07X  C2010 10 31.31917 04 30 30.09 +33 20 17.5          19.4 V EV003G96
         K10U07X  C2010 10 31.32087 04 30 30.24 +33 20 21.9          19.6 V EV003G96
         K10U07X  C2010 10 31.32242 04 30 30.38 +33 20 25.7          19.5 V EV003G96
         K10U07X  C2010 10 31.32397 04 30 30.49 +33 20 29.6          19.5 V EV003G96
         K10U07X  C2010 10 31.35658 04 30 33.49 +33 21 52.7          19.3 R EV003H01
         K10U07X KC2010 10 31.35983804 30 33.16 +33 21 57.4          19.7 V EV003H21
         K10U07X  C2010 10 31.36397 04 30 34.19 +33 22 11.4          19.3 R EV003H01
         K10U07X IC2010 10 31.36543704 30 33.75 +33 22 11.8                 EV003H21
         K10U07X KC2010 10 31.37115604 30 34.23 +33 22 26.3          20.3 V EV003H21
         K10U07X  C2010 10 31.37246 04 30 35.00 +33 22 33.0          19.2 R EV003H01
         K10U07X  C2010 10 31.37815 04 30 35.54 +33 22 47.3          19.2 R EV003H01
    
    Observer details:
    B03 Alter Satzberg, Vienna.  Observer M. Pietschnig.  0.35-m f/5.8
        Schmidt-Cassegrain + CCD.
    G96 Mt. Lemmon Survey.  Observers A. R. Gibbs, A. Boattini.  Measurers
        J. D. Ahern, E. C. Beshore, A. Boattini, G. J. Garradd, A. R. Gibbs,
        A. D. Grauer, R. E. Hill, R. A. Kowalski, S. M. Larson, R. H. McNaught.
        1.5-m reflector + CCD.
    H01 Magdalena Ridge Observatory, Socorro.  Observers W. H. Ryan, E. V. Ryan.
        Measurer W. H. Ryan.  2.4-m f/8.9 reflector + CCD.
    H21 Astronomical Research Observatory, Westfield.  Observer R. Holmes.
        Measurers S. Foglia, T. Vorobjov.  0.81-m f/4.0 astrograph + CCD.
    
    Orbital elements:
    2010 UX7                                                 Earth MOID = 0.1377 AU
    Epoch 2010 July 23.0 TT = JDT 2455400.5                 MPC
    M 279.90900              (2000.0)            P               Q
    n   0.46941176     Peri.   88.60773     -0.40165110     -0.91397511
    a   1.6397088      Node    25.31827     +0.77744249     -0.37357815
    e   0.3789153      Incl.    7.75027     +0.48400368     -0.15839461
    P   2.10           H   20.6           G   0.15           U   9
    Residuals in seconds of arc
    101030 G96  0.1-  0.0     101031 G96  0.3+  0.0     101031 H01  0.2-  0.0
    101030 G96  0.2-  0.0     101031 G96  0.1+  0.0     101031 H21  0.6+  0.1+
    101030 G96  0.1-  0.1+    101031 G96  0.0   0.1-    101031 H21  0.2-  0.3+
    101030 G96  0.2+  0.1+    101031 G96  0.5-  0.2-    101031 H01  0.1-  0.1+
    101030 B03  0.7+  0.5+    101031 H01  0.1-  0.1+    101031 H01  0.1-  0.0
    101030 B03  0.4-  0.8-    101031 H21  0.0   0.2-
    
    Ephemeris:
    2010 UX7                 a,e,i = 1.64, 0.38, 8                   q = 1.0184
    Date    TT    R. A. (2000) Decl.     Delta      r     Elong.  Phase     V
    2010 10 31    04 29.91   +33 06.9    0.286    1.238   144.8    27.5    19.6
    2010 11 10    04 50.22   +41 16.3    0.230    1.188   146.0    27.8    19.0
    2010 11 20    05 21.26   +52 01.7    0.188    1.142   142.1    32.1    18.6
    2010 11 30    06 25.48   +64 30.3    0.160    1.101   132.5    41.3    18.5
    2010 12 10    09 07.93   +73 14.6    0.148    1.067   120.2    52.9    18.5
    2010 12 20    12 22.99   +68 59.2    0.147    1.041   108.9    63.4    18.8
    2010 12 30    13 43.90   +58 33.2    0.154    1.024   101.2    70.4    19.1
    2011 01 09    14 15.78   +48 32.4    0.164    1.018    97.6    73.2    19.3
    2011 01 19    14 29.85   +39 56.9    0.176    1.023    97.9    72.3    19.4
    2011 01 29    14 35.09   +32 40.2    0.186    1.038   101.5    68.4    19.4
    2011 02 08    14 33.50   +26 27.3    0.196    1.063   107.9    62.0    19.4
    2011 02 18    14 25.22   +20 58.5    0.204    1.096   117.1    53.4    19.3
    2011 02 28    14 10.27   +15 59.9    0.214    1.136   128.6    42.9    19.2
    2011 03 10    13 49.37   +11 23.2    0.228    1.182   142.2    31.0    19.1
    2011 03 20    13 25.49   +07 08.2    0.252    1.231   156.7    18.7    19.0
    2011 03 30    13 02.73   +03 24.5    0.289    1.283   169.7     8.0    19.0
    2011 04 09    12 44.55   +00 18.2    0.340    1.337   170.3     7.3    19.4
    2011 04 19    12 32.72   -02 13.9    0.406    1.392   159.9    14.3    20.2
    2011 04 29    12 27.07   -04 19.8    0.486    1.447   149.7    20.5    20.9
    2011 05 09    12 26.69   -06 08.9    0.578    1.502   140.6    25.3    21.5
    2011 05 19    12 30.55   -07 48.5    0.682    1.555   132.4    28.7    22.0
    2011 05 29    12 37.61   -09 22.7    0.795    1.608   125.0    31.1    22.5
    2011 06 08    12 47.13   -10 54.5    0.917    1.659   118.2    32.6    22.9
    2011 06 18    12 58.56   -12 25.2    1.046    1.708   111.9    33.5    23.3
    
    Carl W. Hergenrother         (C) Copyright 2010 MPC           M.P.E.C. 2010-V03
    

    Read MPEC 2010-V02 Read MPEC 2010-V04


    MPEC number:

    Enter an MPEC number in one of the following forms:

    • 1997-B01 (the full form)
    • J97B01 (the packed version of the full form)
    • B01 (the abbreviated form)